Regional Weather Roundup
Issued by NWS

Home | Current Version | Previous Version | Text Only | Print | Product List | Glossary On
Versions: 1 2 3 4 5 6 7 8 9 10 11 12 13 14 15 16 17 18 19 20 21 22 23 24 25 26 27 28 29 30 31 32 33 34 35 36 37 38 39 40 41 42 43 44 45 46 47 48 49 50
000
ASHW40 PHFO 291743
RWRHI

WEATHER ROUNDUP FOR HAWAII
NATIONAL WEATHER SERVICE HONOLULU HI
700 AM HST TUE JUL 29 2014

THIS IS AN AUTOMATED REPORT THAT HAS NOT BEEN QUALITY CONTROLLED.

NOTE..."FAIR" INDICATES FEW OR NO CLOUDS BELOW 12,000 FEET WITH NO
SIGNIFICANT WEATHER AND/OR OBSTRUCTIONS TO VISIBILITY.

* - THESE SITES REPORT LIMITED FIELDS

HIZ001>004-291800-
KAUAI-NIIHAU-

CITY           SKY/WX    TMP DP  RH WIND       PRES   REMARKS
LIHUE APT      MOSUNNY   79  70  73 NE9       30.08S
PORT ALLEN*      N/A     72 N/A N/A N5          N/A
POIPU*           N/A     75 N/A N/A VRB5        N/A
PRINCEVILLE*   NOT AVBL
KOKOLE POINT*  NOT AVBL
MOLOAA DAIRY*  NOT AVBL
WAIMEA HTS*      N/A     81  64  57 NE3         N/A
PUU OPAE*        N/A     72  64  78 CALM        N/A
PUU LUA*       NOT AVBL
MAKAHA RIDGE*  NOT AVBL
$$

HIZ005>011-291800-
OAHU-

CITY           SKY/WX    TMP DP  RH WIND       PRES   REMARKS
HONOLULU       MOSUNNY   79  68  69 NE8       30.05R
KALAELOA       SUNNY     74  67  78 VRB3      30.06R
KANEOHE MCB    MOSUNNY   79  66  64 E7        30.06R
WHEELER FIELD  FAIR      69  66  89 W5        30.07R
BELLOWS*         N/A    N/A N/A N/A E13         N/A
KAHUKU*          N/A    N/A N/A N/A E8          N/A
WHEELER*       NOT AVBL
WAIANAE HARBOR NOT AVBL
DILLINGHAM*      N/A     68  64  88 NE2         N/A
KAHUKU TRN*      N/A     75  70  83 E8G16       N/A
KAWAILOA*      NOT AVBL
KII*             N/A     79  72  78 CALM        N/A
MAKUA RANGE*     N/A     72  64  78 E3          N/A
OAHU FOREST NW   N/A     66  66 100 NE15G26     N/A
SCHOFIELD BRK*   N/A     66  64  94 MISG        N/A
SCHOFIELD S*   NOT AVBL
WAIANAE VLY*     N/A     75  64  69 NE2G18      N/A
KUAOKALA*        N/A     75  63  64 CALM        N/A
HONOULIUULI*   NOT AVBL
MOKUOLOE IS*     N/A    N/A N/A N/A MISG        N/A
PALEHUA*         N/A     82  70  65 CALM        N/A
WAIAWA PHB*    NOT AVBL
$$

HIZ012>013-291800-
MOLOKAI-

CITY           SKY/WX    TMP DP  RH WIND       PRES   REMARKS
MOLOKAI AIRPT  MOSUNNY   74  71  91 NE5       30.06R
KALAUPAPA      NOT AVBL
MAKAPULAPAI*     N/A     81  70  69 E15G24      N/A
MOLOKAI 1*       N/A     68  61  77 S2          N/A
PUU ALII*        N/A     59  58  95 SE3G12      N/A
$$

HIZ016-291800-
KAHOOLAWE-

CITY           SKY/WX    TMP DP  RH WIND       PRES   REMARKS
KAHOOLAWE*       N/A     72 N/A N/A E13G20      N/A
HAKIOAWA*        N/A     77  67  71 MISG      30.17S
HONOKANAIA*      N/A     78  65  64 NE15G25   30.05
KANELOA*         N/A     75  66  73 NE17G25   30.14R
KEALIALALO*      N/A    N/A N/A N/A E12G25    30.36R
LUA MAKIKA*    NOT AVBL
$$

HIZ014>015-291800-
LANAI-

CITY           SKY/WX    TMP DP  RH WIND       PRES   REMARKS
LANAI CITY     FAIR      69  69 100 NE3       30.11R
LANAI 1*         N/A     73  72  94 NE10G18     N/A
$$

HIZ017>028-291800-
MAUI-

CITY           SKY/WX    TMP DP  RH WIND       PRES   REMARKS
KAHULUI        MOSUNNY   69  65  86 CALM      30.05R
KAPALUA-W MAUI MOSUNNY   75  64  69 E14       30.05R
HANA AIRPORT   PTSUNNY   77  72  83 CALM      30.10R
HANA*            N/A     75 N/A N/A S3          N/A
HALEAKALA SUMM   N/A     46  25  42 NW10        N/A
MAALAEA BAY*   NOT AVBL
HALEAKALA*     NOT AVBL
KAUPO GAP*       N/A     57  48  72 VRB5G10     N/A
KULA 1*          N/A    N/A N/A N/A E6          N/A
$$

HIZ023>026-291800-
BIG ISLAND OF HAWAII COAST AND LOWER SLOPES-

CITY           SKY/WX    TMP DP  RH WIND       PRES   REMARKS
KAILUA KONA    SUNNY     79  69  71 CALM      30.00R
HILO           SUNNY     73  63  70 SW7       30.06R
HONOKAA*       NOT AVBL
KAWAIHAE MWT*    N/A     77 N/A N/A E5          N/A
KAWAIHAE*        N/A     82 N/A N/A N3          N/A
SOUTH POINT*     N/A     70 N/A N/A N12         N/A
UPOLU AIRPORT*   N/A    N/A N/A N/A E10G17      N/A
KAMUELA*       SUNNY     70  57  64 NE14      30.15R
HAKALAU*         N/A     52  38  59 W2          N/A
KALOKO-HONOKO*   N/A     79  73  83 NE3         N/A
PALI 2*          N/A     68  57  68 N13G21      N/A
KEALAKOMO*       N/A     75  64  69 N9          N/A
KAUPULEHU*       N/A     79  63  57 SW5         N/A
KAPAPALA*        N/A     62  56  82 VRB3G10     N/A
LOWER KAHUKU*  NOT AVBL
PUHE CS*       NOT AVBL
PUHO CS*         N/A     73  66  78 NE3         N/A
PTA KEAMUKU*     N/A     64  52  63 E7          N/A
WAIKOLOA*        N/A     77  54  44 E12G18      N/A
$$

HIZ027>028-291800-
BIG ISLAND OF HAWAII INTERIOR AND SUMMMITS-

CITY           SKY/WX    TMP DP  RH WIND       PRES   REMARKS
BRADSHAW FIELD PTSUNNY   54  33  45 E2        30.37S
MK VISITOR CEN NOT AVBL
MAUNA KEA*       N/A     43 -17   7 SE5         N/A
MAUNA LOA*       N/A    N/A N/A N/A MISG        N/A
MAUNA LOA 1*   NOT AVBL
PTA KIPUKA*      N/A     57  54  88 S3          N/A
PTA RANGE 17*    N/A     55  37  50 E5          N/A
PTA WEST*        N/A     57  45  62 SE10        N/A
NENE CABIN*    NOT AVBL
AHUMOA*          N/A     62  41  46 NE3G9       N/A
PTA PORTABLE*  NOT AVBL
PUU MALI*      NOT AVBL
$$

HIC003-291800-
NORTHWEST ISLANDS-

CITY           SKY/WX    TMP DP  RH WIND       PRES   REMARKS
MIDWAY ISLAND  CLEAR     81  73  78 S15       30.01S
MIDWAY NOS*    NOT AVBL
FRENCH FRIGATE NOT AVBL
$$

PHZ110>124-180-291800-
BUOY REPORTS

STATION/POSITION TIME  TEMP    WIND        PRES    WAVE   SWELL
                       AIR SEA DIR/SP/G            HT/PER HT/DIR
                 (UTC) (F)     (DEG/KT/KT) (MB)    (FT/S) (FT/D)
BUOY 51001       NOT AVBL
BUOY 51101       1600   79 80   90/ 12/ 14 1017.8R   5/10   5/110
BUOY 51100       1700   77 78   90/ 10/ 12 1019.0R
BUOY 51003       1700   80 81  100/  8/  8 1016.4R   7/ 8   7
BUOY 51004       1647   78 80   40/ 16/ 19 1015.2R   8/ 9   5/100
BARBERS PT BUOY  NOT AVBL
WAIMEA BAY BUOY  1700      80                N/A     2/ 7
KAILUA BAY BUOY  1700      80                N/A     4/ 9
LANAI BUOY       1700      80                N/A     2/13   2/220
BARBERS PT 2     1700      81                N/A     5/ 7   2/220
PAUWELA MAUI     1700      79                N/A     5/ 8   2/ 90
HILO             NOT AVBL
KANEOHE BAY BUOY 1700      79                N/A     4/ 8
HANALEI KAUAI    NOT AVBL
KAHULUI HARBOR   1700   77 80   30/  7/  8 1017.4R
HONOLULU HARBOR  1700   79      70/  3/  7 1017.9R
KILO NALU        NOT AVBL
HILO HARBOR      1700   75     210/  4/  5 1017.3R
MOKUOLOE         1700   80 82   80/  5/  8 1018.3R
NAWILIWILI       1700      82                N/A
WHOTS BUOY       NOT AVBL
BUOY 51028       NOT AVBL
$$

......................KEY........................................
  SKY/WX - SKY CONDITIONS/PRESENT WEATHER
  TMP    - TEMPERATURE IN FAHRENHEIT
  DWPT   - DEWPOINT IN FAHRENHEIT
  RH     - RELATIVE HUMIDITY IN PERCENT
  WIND   - DIRECTION AND SPEED /MPH FOR ISLANDS...KTS FOR BUOYS/
  PRES   - MEAN SEA LEVEL PRESSURE IN INCHES OF HG
  VSB    - VISIBILITY IN MILES
  HX     - HEAT INDEX
  WCI    - WIND CHILL INDEX
  VRB    - VARIABLE WIND DIRECTION
  N/A    - NOT AVAILABLE


USA.gov is the U.S. government's official web portal to all federal, state and local government web resources and services.